2023/01/24 00:00:00, 0.6, 0.1
2023/01/24 00:10:00, 0.6, 0.2
2023/01/24 00:20:00, 0.7, 0.3
2023/01/24 00:30:00, 0.7,-0.1
2023/01/24 00:40:00, 0.7, 0.0
2023/01/24 00:50:00, 0.7,-0.4
2023/01/24 01:00:00, 0.7,-0.1
2023/01/24 01:10:00, 0.7,-0.6
2023/01/24 01:20:00, 0.7,-0.3
2023/01/24 01:30:00, 0.7,-0.2
2023/01/24 01:40:00, 0.7, 0.0
2023/01/24 01:50:00, 0.7, 0.0
2023/01/24 02:00:00, 0.7,-0.4
2023/01/24 02:10:00, 0.7, 0.1
2023/01/24 02:20:00, 0.7,-0.5
2023/01/24 02:30:00, 0.7,-0.7
2023/01/24 02:40:00, 0.7,-0.3
2023/01/24 02:50:00, 0.7,-0.4
2023/01/24 03:00:00, 0.7, 0.1
2023/01/24 03:10:00, 0.7,-0.4
2023/01/24 03:20:00, 0.7,-0.4
2023/01/24 03:30:00, 0.7,-0.2
2023/01/24 03:40:00, 0.7,-0.6
2023/01/24 03:50:00, 0.7,-0.4
2023/01/24 04:00:00, 0.6,-0.1
2023/01/24 04:10:00, 0.6,-0.4
2023/01/24 04:20:00, 0.6, 0.0
2023/01/24 04:30:00, 0.7,-0.1
2023/01/24 04:40:00, 0.8, 0.4
2023/01/24 04:50:00, 0.7, 0.3
2023/01/24 05:00:00, 0.8, 0.1
2023/01/24 05:10:00, 0.8, 0.2
2023/01/24 05:20:00, 0.8, 0.2
2023/01/24 05:30:00, 0.7, 0.1
2023/01/24 05:40:00, 0.7, 0.1
2023/01/24 05:50:00, 0.7, 0.4
2023/01/24 06:00:00, 0.7, 0.4
2023/01/24 06:10:00, 0.7, 0.2
2023/01/24 06:20:00, 0.8, 0.3
2023/01/24 06:30:00, 0.8, 0.4
2023/01/24 06:40:00, 0.8, 0.4
2023/01/24 06:50:00, 0.8, 0.3
2023/01/24 07:00:00, 0.7, 0.1
2023/01/24 07:10:00, 0.8, 0.8
2023/01/24 07:20:00, 0.8, 0.8
2023/01/24 07:30:00, 0.7, 0.7
2023/01/24 07:40:00, 0.8, 0.7
2023/01/24 07:50:00, 0.8, 0.5
2023/01/24 08:00:00, 0.8, 0.1
2023/01/24 08:10:00, 0.8, 0.4
2023/01/24 08:20:00, 1.0, 0.4
2023/01/24 08:30:00, 1.1, 0.1
2023/01/24 08:40:00, 1.7, 0.0
2023/01/24 08:50:00, 2.3, 0.0
2023/01/24 09:00:00, 2.5, 0.3
2023/01/24 09:10:00, 2.7, 0.1
2023/01/24 09:20:00, 3.9, 0.0
2023/01/24 09:30:00, 4.5,-0.5
2023/01/24 09:40:00, 5.1, 0.0
2023/01/24 09:50:00, 5.6,-0.3
2023/01/24 10:00:00, 6.3,-0.9
2023/01/24 10:10:00, 7.0,-0.7
2023/01/24 10:20:00, 7.6,-0.6
2023/01/24 10:30:00, 7.9,-0.6
2023/01/24 10:40:00, 8.2,-0.2
2023/01/24 10:50:00, 8.6, 0.8
2023/01/24 11:00:00, 8.7, 1.9
2023/01/24 11:10:00, 8.5, 1.2
2023/01/24 11:20:00, 8.4, 1.8
2023/01/24 11:30:00, 8.2, 1.4
2023/01/24 11:40:00, 8.0,-0.7
2023/01/24 11:50:00, 8.0,-0.7
2023/01/24 12:00:00, 8.4,-1.5
2023/01/24 12:10:00, 8.8,-0.8
2023/01/24 12:20:00, 8.6, 0.0
2023/01/24 12:30:00, 8.8,-1.8
2023/01/24 12:40:00, 9.0,-2.4
2023/01/24 12:50:00, 9.2,-2.5
2023/01/24 13:00:00, 9.7,-2.8
2023/01/24 13:10:00,10.6,-3.5
2023/01/24 13:20:00,11.2,-2.6
2023/01/24 13:30:00,11.4,-1.7
2023/01/24 13:40:00,11.4,-2.6
2023/01/24 13:50:00,11.4,-1.7
2023/01/24 14:00:00,11.4,-1.9
2023/01/24 14:10:00,11.4,-2.5
2023/01/24 14:20:00,11.2,-2.9
2023/01/24 14:30:00,11.2,-3.3
2023/01/24 14:40:00,11.7,-2.7
2023/01/24 14:50:00,12.2,-3.1
2023/01/24 15:00:00,12.3,-3.7
2023/01/24 15:10:00,12.8,-3.7
2023/01/24 15:20:00,13.3,-3.8
2023/01/24 15:30:00,13.7,-4.0
2023/01/24 15:40:00,14.3,-4.3
2023/01/24 15:50:00,15.0,-4.2
2023/01/24 16:00:00,15.6,-4.3
2023/01/24 16:10:00,16.2,-4.6
2023/01/24 16:20:00,16.6,-4.8
2023/01/24 16:30:00,17.2,-4.8
2023/01/24 16:40:00,17.9,-5.0
2023/01/24 16:50:00,18.5,-4.8
2023/01/24 17:00:00,18.7,-5.0
2023/01/24 17:10:00,19.3,-5.3
2023/01/24 17:20:00,20.1,-5.2
2023/01/24 17:30:00,21.3,-5.1
2023/01/24 17:40:00,22.7,-5.1
2023/01/24 17:50:00,24.2,-5.2
2023/01/24 18:00:00,25.0,-5.5
2023/01/24 18:10:00,25.6,-5.4
2023/01/24 18:20:00,26.3,-5.4
2023/01/24 18:30:00,27.1,-5.7
2023/01/24 18:40:00,27.4,-5.5
2023/01/24 18:50:00,27.6,-5.4
2023/01/24 19:00:00,27.6,-5.0
2023/01/24 19:10:00,27.6,-5.1
2023/01/24 19:20:00,27.6,-5.0
2023/01/24 19:30:00,27.6,-5.4
2023/01/24 19:40:00,27.6,-5.4
2023/01/24 19:50:00,27.7,-5.4
2023/01/24 20:00:00,28.5,-5.3
2023/01/24 20:10:00,29.5,-5.6
2023/01/24 20:20:00,30.9,-5.5
2023/01/24 20:30:00,31.7,-5.4
2023/01/24 20:40:00,32.3,-5.5
2023/01/24 20:50:00,33.2,-5.4
2023/01/24 21:00:00,33.9,-5.3
2023/01/24 21:10:00,34.7,-5.2
2023/01/24 21:20:00,35.3,-5.4
2023/01/24 21:30:00,35.7,-5.1
2023/01/24 21:40:00,36.3,-5.2
2023/01/24 21:50:00,37.1,-5.4
2023/01/24 22:00:00,37.8,-5.6
2023/01/24 22:10:00,38.7,-5.1
2023/01/24 22:20:00,39.3,-5.2
2023/01/24 22:30:00,40.1,-5.3
2023/01/24 22:40:00,41.6,-5.2
2023/01/24 22:50:00,43.5,-5.5
2023/01/24 23:00:00,43.9,-5.3
2023/01/24 23:10:00,44.4,-5.3
2023/01/24 23:20:00,45.5,-5.5
2023/01/24 23:30:00,46.5,-5.3
2023/01/24 23:40:00,47.3,-5.4
2023/01/24 23:50:00,47.7,-5.5
